TimeMDT,TemperatureF,Dew PointF,Humidity,Sea Level PressureIn,VisibilityMPH,Wind Direction,Wind SpeedMPH,Gust SpeedMPH,PrecipitationIn,Events,Conditions,WindDirDegrees,DateUTC
12:53 AM,39.2,37.4,93,29.61,10.0,NW,6.9,-,N/A,,Overcast,320,2012-10-23 06:53:00
1:53 AM,39.0,36.0,89,29.68,10.0,NW,12.7,-,N/A,,Overcast,310,2012-10-23 07:53:00
1:57 AM,39.2,35.6,87,29.64,10.0,NW,10.4,-,N/A,,Overcast,320,2012-10-23 07:57:00
2:36 AM,37.4,35.6,93,29.65,10.0,NW,9.2,-,N/A,,Overcast,320,2012-10-23 08:36:00
2:53 AM,37.9,35.1,89,29.69,10.0,West,8.1,-,N/A,,Overcast,280,2012-10-23 08:53:00
3:00 AM,37.4,33.8,87,29.64,10.0,WNW,5.8,-,N/A,,Mostly Cloudy,290,2012-10-23 09:00:00
3:53 AM,37.0,34.0,89,29.69,10.0,SW,4.6,-,N/A,,Mostly Cloudy,220,2012-10-23 09:53:00
4:53 AM,37.0,34.0,89,29.69,10.0,WSW,4.6,-,N/A,,Partly Cloudy,240,2012-10-23 10:53:00
5:53 AM,37.0,34.0,89,29.71,10.0,SW,6.9,-,N/A,,Scattered Clouds,220,2012-10-23 11:53:00
6:53 AM,37.0,34.0,89,29.73,10.0,Variable,4.6,-,N/A,,Mostly Cloudy,0,2012-10-23 12:53:00
7:53 AM,37.9,33.1,83,29.76,10.0,WSW,3.5,-,N/A,,Mostly Cloudy,250,2012-10-23 13:53:00
8:53 AM,37.0,35.1,93,29.80,10.0,South,5.8,-,N/A,,Mostly Cloudy,190,2012-10-23 14:53:00
9:53 AM,37.0,35.1,93,29.81,10.0,Calm,Calm,-,N/A,,Mostly Cloudy,0,2012-10-23 15:53:00
10:53 AM,39.9,34.0,79,29.83,10.0,North,4.6,-,N/A,,Mostly Cloudy,350,2012-10-23 16:53:00
11:53 AM,41.0,28.9,62,29.83,10.0,NNW,11.5,-,N/A,,Mostly Cloudy,330,2012-10-23 17:53:00
12:53 PM,41.0,30.0,65,29.84,10.0,North,5.8,-,N/A,,Mostly Cloudy,350,2012-10-23 18:53:00
1:53 PM,41.0,30.9,67,29.84,10.0,Variable,3.5,-,0.00,,Scattered Clouds,0,2012-10-23 19:53:00
2:53 PM,45.0,30.9,58,29.83,10.0,NE,8.1,-,N/A,,Scattered Clouds,50,2012-10-23 20:53:00
3:53 PM,44.1,36.0,73,29.84,10.0,ENE,11.5,-,N/A,,Scattered Clouds,60,2012-10-23 21:53:00
4:53 PM,39.9,35.1,83,29.87,10.0,East,13.8,-,N/A,,Mostly Cloudy,80,2012-10-23 22:53:00
5:53 PM,39.9,33.1,77,29.86,10.0,ENE,11.5,-,N/A,,Scattered Clouds,60,2012-10-23 23:53:00
6:53 PM,37.0,33.1,86,29.89,10.0,ENE,10.4,-,N/A,,Mostly Cloudy,60,2012-10-24 00:53:00
7:26 PM,35.6,32.0,87,29.84,10.0,NE,8.1,-,N/A,,Overcast,40,2012-10-24 01:26:00
7:45 PM,35.6,32.0,87,29.84,10.0,ENE,11.5,-,0.00,Rain-Snow-Thunderstorm,Light Thunderstorms and Rain,60,2012-10-24 01:45:00
7:53 PM,35.1,32.0,89,29.89,9.0,ENE,9.2,-,0.00,Snow-Thunderstorm,Light Thunderstorms and Snow,70,2012-10-24 01:53:00
8:15 PM,35.6,32.0,87,29.84,9.0,ENE,10.4,-,0.00,Thunderstorm,Thunderstorm,70,2012-10-24 02:15:00
8:29 PM,33.8,30.2,87,29.84,10.0,ENE,10.4,-,0.00,,Scattered Clouds,60,2012-10-24 02:29:00
8:53 PM,34.0,32.0,92,29.92,10.0,NNE,6.9,-,0.00,,Mostly Cloudy,30,2012-10-24 02:53:00
9:53 PM,34.0,30.9,89,29.94,10.0,ENE,11.5,-,0.03,,Mostly Cloudy,60,2012-10-24 03:53:00
10:30 PM,33.8,30.2,87,29.89,10.0,NE,13.8,-,N/A,,Mostly Cloudy,50,2012-10-24 04:30:00
10:42 PM,32.0,30.2,93,29.90,10.0,NE,17.3,21.9,N/A,,Mostly Cloudy,40,2012-10-24 04:42:00
10:53 PM,30.9,28.9,92,29.97,10.0,NNE,15.0,-,N/A,,Overcast,30,2012-10-24 04:53:00
11:53 PM,30.0,28.0,92,29.99,10.0,NE,12.7,-,N/A,,Overcast,40,2012-10-24 05:53:00